Location: Mahannah Oil Field
(37.4664°N, 96.6003°W)
Time: 19:13:16
(UTC+00:00)

Vanguard 2 Rocket - Pass Details

Date: 27 January 2021
Orbit: 554 x 3326 km, 32.9° (Epoch: 26 February)

Event Time Altitude Azimuth Distance (km) Brightness Sun altitude
Rises 18:43:14 0° 221° (SW) 7,304 12.1 34.3°
Reaches altitude 10° 18:48:44 10° 216° (SW) 6,232 12.1 34.2°
Maximum altitude 19:05:57 42° 154° (SSE) 3,490 11.2 33.9°
Drops below altitude 10° 19:17:49 10° 89° (E) 4,395 10.4 33.6°
Sets 19:20:54 0° 82° (E) 5,057 10.5 33.4°
